When you browse on this site, cookies collect data to enhance your experience and personalize the content and advertising you see.
Visit our Privacy Policy to learn more. By continuing to use the site, you agree to this use of cookies and data.
  • In United Kingdom
  • List of Countries
  • For 7 days
  • Water Temperature
  • Satellite Maps
  • Weather Map
  • Weather Widgets
  • user-avatar
    Login

    Hourly Weather Siva

    Today, 21 May, Tuesday

    Time Temperature Precipitation Wind Pressure Humidity
    00:00 +36°C° 0 mm 5 mps 755 mmHg 9%
    01:00 +36°C° 0 mm 5 mps 755 mmHg 10%
    02:00 +35°C° 0 mm 5 mps 755 mmHg 10%
    03:00 +34°C° 0 mm 5 mps 754 mmHg 12%
    04:00 +33°C° 0 mm 5 mps 754 mmHg 13%
    05:00 +32°C° 0 mm 5 mps 754 mmHg 15%
    06:00 +33°C° 0 mm 6 mps 754 mmHg 15%
    07:00 +34°C° 0 mm 6 mps 755 mmHg 15%
    08:00 +35°C° 0 mm 7 mps 755 mmHg 15%
    09:00 +38°C° 0 mm 7 mps 755 mmHg 13%
    10:00 +40°C° 0 mm 7 mps 755 mmHg 11%
    11:00 +43°C° 0 mm 7 mps 755 mmHg 10%
    12:00 +44°C° 0 mm 7 mps 755 mmHg 9%
    13:00 +45°C° 0 mm 6 mps 755 mmHg 8%
    14:00 +46°C° 0 mm 6 mps 755 mmHg 7%
    15:00 +46°C° 0 mm 5 mps 754 mmHg 7%
    16:00 +46°C° 0 mm 5 mps 754 mmHg 7%
    17:00 +46°C° 0 mm 5 mps 753 mmHg 6%
    18:00 +43°C° 0 mm 4 mps 754 mmHg 7%
    19:00 +42°C° 0 mm 4 mps 754 mmHg 8%
    20:00 +41°C° 0 mm 4 mps 754 mmHg 8%
    21:00 +39°C° 0 mm 3 mps 754 mmHg 9%
    22:00 +38°C° 0 mm 3 mps 754 mmHg 9%
    23:00 +38°C° 0 mm 3 mps 755 mmHg 10%

    Tomorrow, 22 May, Wednesday

    Time Temperature Precipitation Wind Pressure Humidity
    00:00 +37°C° 0 mm 4 mps 755 mmHg 11%
    01:00 +36°C° 0 mm 4 mps 754 mmHg 12%
    02:00 +35°C° 0 mm 5 mps 754 mmHg 13%
    03:00 +35°C° 0 mm 5 mps 754 mmHg 16%
    04:00 +34°C° 0 mm 5 mps 754 mmHg 20%
    05:00 +33°C° 0 mm 5 mps 754 mmHg 23%
    06:00 +34°C° 0 mm 6 mps 754 mmHg 21%
    07:00 +35°C° 0 mm 6 mps 754 mmHg 19%
    08:00 +36°C° 0 mm 7 mps 754 mmHg 17%
    09:00 +39°C° 0 mm 7 mps 754 mmHg 14%
    10:00 +41°C° 0 mm 7 mps 754 mmHg 11%
    11:00 +45°C° 0 mm 7 mps 754 mmHg 8%
    12:00 +46°C° 0 mm 7 mps 754 mmHg 7%
    13:00 +47°C° 0 mm 7 mps 753 mmHg 6%
    14:00 +48°C° 0 mm 6 mps 753 mmHg 6%
    15:00 +48°C° 0 mm 6 mps 752 mmHg 5%
    16:00 +48°C° 0 mm 5 mps 752 mmHg 5%
    17:00 +48°C° 0 mm 5 mps 751 mmHg 5%
    18:00 +45°C° 0 mm 4 mps 752 mmHg 6%
    19:00 +44°C° 0 mm 4 mps 752 mmHg 6%
    20:00 +42°C° 0 mm 3 mps 752 mmHg 7%
    21:00 +42°C° 0 mm 3 mps 752 mmHg 7%
    22:00 +40°C° 0 mm 3 mps 752 mmHg 7%
    23:00 +40°C° 0 mm 4 mps 753 mmHg 7%

    Day after tomorrow, 23 May, Thursday

    Time Temperature Precipitation Wind Pressure Humidity
    00:00 +38°C° 0 mm 3 mps 752 mmHg 8%
    01:00 +38°C° 0 mm 3 mps 752 mmHg 8%
    02:00 +37°C° 0 mm 3 mps 751 mmHg 8%
    03:00 +36°C° 0 mm 4 mps 751 mmHg 9%
    04:00 +36°C° 0 mm 4 mps 751 mmHg 9%
    05:00 +35°C° 0 mm 4 mps 751 mmHg 10%
    06:00 +36°C° 0 mm 4 mps 751 mmHg 9%
    07:00 +37°C° 0 mm 4 mps 751 mmHg 8%
    08:00 +39°C° 0 mm 5 mps 751 mmHg 7%
    09:00 +41°C° 0 mm 5 mps 751 mmHg 6%
    10:00 +45°C° 0 mm 6 mps 751 mmHg 5%
    11:00 +47°C° 0 mm 7 mps 752 mmHg 4%
    12:00 +49°C° 0 mm 7 mps 751 mmHg 4%
    13:00 +50°C° 0 mm 7 mps 751 mmHg 4%
    14:00 +51°C° 0 mm 7 mps 750 mmHg 3%
    15:00 +49°C° 0 mm 6 mps 750 mmHg 3%
    16:00 +49°C° 0 mm 6 mps 749 mmHg 3%
    17:00 +49°C° 0 mm 5 mps 749 mmHg 3%
    18:00 +47°C° 0 mm 4 mps 749 mmHg 4%
    19:00 +45°C° 0 mm 4 mps 749 mmHg 4%
    20:00 +43°C° 0 mm 3 mps 749 mmHg 4%
    21:00 +42°C° 0 mm 3 mps 750 mmHg 7%
    22:00 +40°C° 0 mm 3 mps 750 mmHg 11%
    23:00 +38°C° 0 mm 3 mps 750 mmHg 14%

    24 May, Friday

    Time Temperature Precipitation Wind Pressure Humidity
    00:00 +38°C° 0 mm 3 mps 750 mmHg 16%
    01:00 +37°C° 0 mm 4 mps 750 mmHg 19%
    02:00 +36°C° 0 mm 5 mps 750 mmHg 22%
    03:00 +34°C° 0 mm 6 mps 750 mmHg 28%
    04:00 +32°C° 0 mm 7 mps 751 mmHg 35%
    05:00 +30°C° 0 mm 7 mps 751 mmHg 41%
    06:00 +29°C° 0 mm 7 mps 751 mmHg 41%
    07:00 +29°C° 0 mm 7 mps 752 mmHg 41%
    08:00 +29°C° 0 mm 7 mps 753 mmHg 41%
    09:00 +30°C° 0 mm 7 mps 753 mmHg 37%
    10:00 +32°C° 0 mm 8 mps 753 mmHg 34%
    11:00 +34°C° 0 mm 8 mps 753 mmHg 30%
    12:00 +35°C° 0 mm 7 mps 753 mmHg 27%
    13:00 +36°C° 0 mm 7 mps 753 mmHg 24%
    14:00 +38°C° 0 mm 6 mps 752 mmHg 21%
    15:00 +39°C° 0 mm 6 mps 752 mmHg 20%
    16:00 +39°C° 0 mm 6 mps 752 mmHg 19%
    17:00 +39°C° 0 mm 6 mps 752 mmHg 18%
    18:00 +38°C° 0 mm 6 mps 753 mmHg 19%
    19:00 +36°C° 0 mm 6 mps 753 mmHg 19%
    20:00 +35°C° 0 mm 5 mps 754 mmHg 19%
    21:00 +33°C° 0 mm 6 mps 754 mmHg 24%
    22:00 +30°C° 0 mm 6 mps 754 mmHg 29%
    23:00 +28°C° 0 mm 7 mps 755 mmHg 33%

    25 May, Saturday

    Time Temperature Precipitation Wind Pressure Humidity
    00:00 +28°C° 0 mm 6 mps 755 mmHg 34%
    01:00 +27°C° 0 mm 5 mps 755 mmHg 34%
    02:00 +26°C° 0 mm 5 mps 755 mmHg 34%
    03:00 +26°C° 0 mm 4 mps 755 mmHg 37%
    04:00 +25°C° 0 mm 4 mps 755 mmHg 40%
    05:00 +23°C° 0 mm 4 mps 756 mmHg 43%
    06:00 +23°C° 0 mm 4 mps 756 mmHg 42%
    07:00 +25°C° 0 mm 4 mps 756 mmHg 42%
    08:00 +25°C° 0 mm 4 mps 757 mmHg 41%
    09:00 +26°C° 0 mm 3 mps 757 mmHg 36%
    10:00 +28°C° 0 mm 2 mps 757 mmHg 31%
    11:00 +29°C° 0 mm 2 mps 756 mmHg 26%
    12:00 +31°C° 0 mm 2 mps 756 mmHg 23%
    13:00 +32°C° 0 mm 1 mps 755 mmHg 21%
    14:00 +33°C° 0 mm 1 mps 755 mmHg 18%
    15:00 +34°C° 0 mm 2 mps 754 mmHg 17%
    16:00 +35°C° 0 mm 2 mps 754 mmHg 16%
    17:00 +35°C° 0 mm 3 mps 754 mmHg 15%
    18:00 +35°C° 0 mm 3 mps 754 mmHg 15%
    19:00 +34°C° 0 mm 2 mps 754 mmHg 15%
    20:00 +32°C° 0 mm 2 mps 754 mmHg 15%
    21:00 +32°C° 0 mm 2 mps 755 mmHg 16%
    22:00 +31°C° 0 mm 3 mps 755 mmHg 16%
    23:00 +31°C° 0 mm 3 mps 755 mmHg 16%

    26 May, Sunday

    Time Temperature Precipitation Wind Pressure Humidity
    00:00 +30°C° 0 mm 4 mps 755 mmHg 23%
    01:00 +29°C° 0 mm 6 mps 754 mmHg 29%
    02:00 +27°C° 0 mm 7 mps 754 mmHg 36%
    03:00 +27°C° 0 mm 6 mps 754 mmHg 37%
    04:00 +26°C° 0 mm 6 mps 754 mmHg 37%
    05:00 +26°C° 0 mm 5 mps 754 mmHg 38%
    06:00 +26°C° 0 mm 6 mps 754 mmHg 37%
    07:00 +26°C° 0 mm 6 mps 754 mmHg 35%
    08:00 +27°C° 0 mm 6 mps 754 mmHg 33%
    09:00 +29°C° 0 mm 6 mps 754 mmHg 28%
    10:00 +32°C° 0 mm 6 mps 754 mmHg 24%
    11:00 +34°C° 0 mm 6 mps 754 mmHg 19%
    12:00 +35°C° 0 mm 5 mps 753 mmHg 17%
    13:00 +36°C° 0 mm 5 mps 753 mmHg 15%
    14:00 +38°C° 0 mm 4 mps 752 mmHg 14%
    15:00 +38°C° 0 mm 4 mps 752 mmHg 13%
    16:00 +38°C° 0 mm 4 mps 752 mmHg 13%
    17:00 +39°C° 0 mm 5 mps 751 mmHg 13%
    18:00 +38°C° 0 mm 4 mps 751 mmHg 13%
    19:00 +37°C° 0 mm 4 mps 752 mmHg 14%
    20:00 +37°C° 0 mm 4 mps 752 mmHg 14%
    21:00 +36°C° 0 mm 4 mps 752 mmHg 14%
    22:00 +36°C° 0 mm 5 mps 751 mmHg 14%
    23:00 +35°C° 0 mm 6 mps 751 mmHg 14%
    Show more